TimeEDT,TemperatureF,Dew PointF,Humidity,Sea Level PressureIn,VisibilityMPH,Wind Direction,Wind SpeedMPH,Gust SpeedMPH,PrecipitationIn,Events,Conditions,WindDirDegrees,DateUTC
12:52 AM,52.0,48.9,89,30.11,8.0,Calm,Calm,-,N/A,,Clear,0,2013-08-19 04:52:00
1:52 AM,51.1,48.0,89,30.10,8.0,Calm,Calm,-,N/A,,Scattered Clouds,0,2013-08-19 05:52:00
2:52 AM,50.0,46.9,89,30.09,5.0,Calm,Calm,-,N/A,,Partly Cloudy,0,2013-08-19 06:52:00
3:32 AM,48.2,44.6,87,30.08,9.0,Calm,Calm,-,N/A,,Mostly Cloudy,0,2013-08-19 07:32:00
3:47 AM,48.2,44.6,87,30.07,8.0,Calm,Calm,-,N/A,,Scattered Clouds,0,2013-08-19 07:47:00
3:52 AM,48.0,45.0,89,30.07,9.0,Calm,Calm,-,N/A,,Scattered Clouds,0,2013-08-19 07:52:00
4:52 AM,46.9,44.1,90,30.07,7.0,Calm,Calm,-,N/A,,Partly Cloudy,0,2013-08-19 08:52:00
5:52 AM,46.9,44.1,90,30.06,4.0,Calm,Calm,-,N/A,,Clear,0,2013-08-19 09:52:00
6:02 AM,46.4,44.6,93,30.06,2.5,Calm,Calm,-,N/A,,Partly Cloudy,0,2013-08-19 10:02:00
6:13 AM,46.4,44.6,93,30.06,6.0,Calm,Calm,-,N/A,,Partly Cloudy,0,2013-08-19 10:13:00
6:52 AM,48.0,45.0,89,30.06,5.0,Calm,Calm,-,N/A,,Scattered Clouds,0,2013-08-19 10:52:00
7:07 AM,48.2,46.4,93,30.06,6.0,Calm,Calm,-,N/A,,Mostly Cloudy,0,2013-08-19 11:07:00
7:15 AM,50.0,46.4,87,30.06,7.0,Calm,Calm,-,N/A,,Scattered Clouds,0,2013-08-19 11:15:00
7:52 AM,54.0,50.0,86,30.06,7.0,Calm,Calm,-,N/A,,Clear,0,2013-08-19 11:52:00
8:52 AM,62.1,55.9,80,30.05,10.0,Calm,Calm,-,N/A,,Clear,0,2013-08-19 12:52:00
9:52 AM,70.0,55.9,61,30.04,10.0,SW,4.6,-,N/A,,Clear,230,2013-08-19 13:52:00
10:52 AM,72.0,55.9,57,30.03,10.0,Variable,3.5,-,N/A,,Clear,0,2013-08-19 14:52:00
11:52 AM,73.9,57.0,55,30.02,10.0,Variable,4.6,-,N/A,,Clear,0,2013-08-19 15:52:00
12:52 PM,75.9,57.0,52,30.00,10.0,West,9.2,-,N/A,,Clear,270,2013-08-19 16:52:00
1:52 PM,77.0,55.9,48,29.99,10.0,West,8.1,17.3,N/A,,Mostly Cloudy,280,2013-08-19 17:52:00
2:52 PM,78.1,57.9,50,29.98,10.0,West,9.2,18.4,N/A,,Mostly Cloudy,270,2013-08-19 18:52:00
3:52 PM,78.1,59.0,52,29.98,10.0,WNW,9.2,-,N/A,,Scattered Clouds,290,2013-08-19 19:52:00
4:52 PM,78.1,57.9,50,29.98,10.0,WNW,4.6,-,N/A,,Partly Cloudy,300,2013-08-19 20:52:00
5:52 PM,75.9,57.9,54,29.99,10.0,WNW,6.9,-,N/A,,Clear,290,2013-08-19 21:52:00
6:52 PM,73.9,59.0,59,30.00,10.0,WSW,4.6,-,N/A,,Clear,240,2013-08-19 22:52:00
7:52 PM,68.0,60.1,76,30.00,10.0,Calm,Calm,-,N/A,,Scattered Clouds,0,2013-08-19 23:52:00
8:52 PM,64.9,59.0,81,30.01,10.0,Calm,Calm,-,N/A,,Clear,0,2013-08-20 00:52:00
9:52 PM,62.1,57.9,86,30.02,9.0,Calm,Calm,-,N/A,,Clear,0,2013-08-20 01:52:00
10:52 PM,60.1,55.9,86,30.02,8.0,Calm,Calm,-,N/A,,Clear,0,2013-08-20 02:52:00
11:52 PM,57.9,55.0,90,30.03,10.0,Calm,Calm,-,N/A,,Clear,0,2013-08-20 03:52:00